Weather History for PATK - January, 2013

Change the Weather History Date:

Thursday, January 3, 2013

  Actual Average Record
Temperature  
Mean Temperature 30 °F -  
Max Temperature 35 °F 14 °F 38 °F (1986)
Min Temperature 26 °F -3 °F -45 °F (1975)
Degree Days  
Heating Degree Days 34    
Moisture  
Dew Point 18 °F    
Average Humidity 52    
Maximum Humidity 64    
Minimum Humidity 34    
Precipitation  
Precipitation 0.00 in - - ()
Sea Level Pressure  
Sea Level Pressure 29.59 in    
Wind  
Wind Speed 9 mph (NNE)    
Max Wind Speed 12 mph    
Max Gust Speed 20 mph    
Visibility 10 miles    
Events      
Averages and records for this station are not official NWS values.
T = Trace of Precipitation, MM = Missing Value Source: NWS Daily Summary

Daily Weather History Graph

Daily Weather History Graph

Search for Another Location

Airport or City:

Trip Planner

Search our weather history database for the weather conditions in past years. The results will help you decide how hot, cold, wet, or windy it might be!

Date:

Astronomy

Jan. 03, 2013 Rise Set
Actual Time 10:24 AM AKST 3:45 PM AKST
Civil Twilight 9:20 AM AKST 4:50 PM AKST
Nautical Twilight 8:18 AM AKST 5:52 PM AKST
Astronomical Twilight 7:22 AM AKST 6:47 PM AKST
Moon No Moon Rise 11:25 AM AKST (1/3)
Length of Visible Light 7h 30m
Length of Day
5h 21m
Waning Gibbous, 64% of the Moon is Illuminated
Jan 3
Waning Gibbous
Jan 4
Last Quarter
Jan 11
New
Jan 18
First Quarter
Jan 26
Full

Hourly Weather History & Observations

Time (AKST) Temp. Windchill Dew Point Humidity Pressure Visibility Wind Dir Wind Speed Gust Speed Precip Events Conditions
12:53 AM 32.0 °F 24.2 °F 21.0 °F 64% 29.61 in 10.0 mi NNE 9.2 mph - N/A   Overcast
1:53 AM 32.0 °F 24.2 °F 19.0 °F 59% 29.60 in 10.0 mi NNE 9.2 mph - N/A   Mostly Cloudy
3:53 AM 32.0 °F 25.6 °F 19.0 °F 59% 29.60 in 10.0 mi North 6.9 mph - N/A   Overcast
4:53 AM 32.0 °F 23.6 °F 18.0 °F 56% 29.60 in 10.0 mi NNE 10.4 mph - N/A   Partly Cloudy
5:53 AM 30.9 °F 23.5 °F 18.0 °F 59% 29.59 in 10.0 mi NNE 8.1 mph - N/A   Scattered Clouds
6:53 AM 32.0 °F 23.6 °F 18.0 °F 56% 29.59 in 10.0 mi NNE 10.4 mph - N/A   Clear
7:53 AM 32.0 °F 24.2 °F 17.1 °F 54% 29.59 in 10.0 mi NNE 9.2 mph 17.3 mph N/A   Clear
8:53 AM 33.1 °F 25.5 °F 18.0 °F 54% 29.59 in 10.0 mi NNE 9.2 mph 18.4 mph N/A   Clear
9:53 AM 33.1 °F 24.9 °F 18.0 °F 54% 29.59 in 10.0 mi NNE 10.4 mph 17.3 mph N/A   Partly Cloudy
10:53 AM 33.1 °F 25.5 °F 18.0 °F 54% 29.60 in 10.0 mi NNE 9.2 mph 18.4 mph N/A   Clear
11:53 AM 33.1 °F 24.4 °F 18.0 °F 54% 29.59 in 10.0 mi NNE 11.5 mph 18.4 mph N/A   Clear
12:53 PM 33.1 °F 26.9 °F 18.0 °F 54% 29.59 in 10.0 mi NNE 6.9 mph 16.1 mph N/A   Clear
1:53 PM 33.1 °F 27.7 °F 18.0 °F 54% 29.59 in 10.0 mi North 5.8 mph - N/A   Mostly Cloudy
2:53 PM 35.1 °F 28.6 °F 18.0 °F 50% 29.58 in 10.0 mi North 8.1 mph 19.6 mph N/A   Mostly Cloudy
3:53 PM 35.1 °F 29.3 °F 18.0 °F 50% 29.58 in 10.0 mi North 6.9 mph - N/A   Overcast
4:53 PM 34.0 °F 28.8 °F 18.0 °F 52% 29.58 in 10.0 mi NNE 5.8 mph - N/A   Overcast
5:53 PM 33.1 °F 26.9 °F 18.0 °F 54% 29.58 in 10.0 mi NNE 6.9 mph - N/A   Overcast
6:53 PM 33.1 °F 30.0 °F 17.1 °F 52% 29.59 in 10.0 mi North 3.5 mph - N/A   Overcast
7:53 PM 33.1 °F 27.7 °F 17.1 °F 52% 29.59 in 10.0 mi NNE 5.8 mph - N/A   Overcast
8:53 PM 34.0 °F 27.2 °F 16.0 °F 48% 29.58 in 10.0 mi North 8.1 mph - N/A   Overcast
9:53 PM 34.0 °F 26.0 °F 18.0 °F 52% 29.58 in 10.0 mi NNE 10.4 mph - N/A   Clear
10:53 PM 34.0 °F 27.2 °F 16.0 °F 48% 29.59 in 10.0 mi North 8.1 mph - N/A   Partly Cloudy
11:53 PM 34.0 °F 26.0 °F 16.0 °F 48% 29.60 in 10.0 mi NNE 10.4 mph - N/A   Scattered Clouds